POLARCUBE (47310 NORAD) Tracking and Keplerian Element Data
This shows tracking and keplerian element data for the satellite.
Feedback or suggestion? Click here.
Element | Value |
Catalog | 47310 |
Name | POLARCUBE |
Epoch Orbit | 680 |
Epoch Day | 62.7684035 |
Epoch Year | 2021 |
RAAN | 326.8557 |
Inclination | 60.6853 |
Eccentricity | 0.0021441 |
Argument of Perigee | 336.8294 |
Mean Anonmoly | 23.1823 |
Mean Motion | 15.2081542 |
Decay Rate | 3.642E-05 |
L1 | 1 47310U 21002B 21062.76840350 .00003642 00000-0 17497-3 0 9990 |
L2 | 2 47310 60.6853 326.8557 0021441 336.8294 23.1823 15.20815420 6809 |
Live tracking and technical data element details for POLARCUBE (NORAD 47310). POLARCUBE can be tracked NOW for your location showing map with azimuth and elevation plus other details from your city location.
Track the satellite on the map from your city or location and see movement details for azimuth, elevation, latitude, longitude, range, height, and movement on the map or in text.
IsCatalogInMostPopularTable: catalog: 47310, numindb: 13
Update: records affected: 1
GetName: 47310 POLARCUBE
Hit Count: updated at: Fri, 05 Mar 2021 07:14:44 GMT